Location: Unspecified
(41.5000°N, 0.0000°E)
Time: 22:14:13
(UTC+00:00)

Vanguard 2 - Pass Details

Date: 22 June 2019
Orbit: 554 x 2938 km, 32.9° (Epoch: 13 October)

Event Time Altitude Azimuth Distance (km) Brightness Sun altitude
Rises 14:12:08 0° 269° (W) 4,793 12.0 57.4°
Reaches altitude 10° 14:15:42 10° 257° (WSW) 4,155 12.0 56.8°
Maximum altitude 14:24:34 25° 208° (SSW) 3,790 11.9 55.3°
Drops below altitude 10° 14:36:15 10° 162° (SSE) 5,545 12.0 53.2°
Sets 14:42:09 0° 151° (SSE) 6,729 12.2 52.2°
